CAPE
0 0 0 0 0 0 0 0 0 0 0 0 0 0 0 0 0 0 0 0 0 0 0 0 0 0 0 0 0 0 0 0 0 0 0 0 0 0 0 0 0 0 0 0
0 0 0 0 0 0 0 0 0 0 0 0 0 0 0 0 0 0 0 0 0 0 0 0 0 0 0 0 0 0 0 0 0 0 0 0 0 0 0 0 0 0 0 0
0 0 0 0 0 0 0 0 0 0 0 0 0 0 0 0 0 0 0 0 0 0 0 0 0 0 0 0 0 0 0 0 0 0 0 0 0 0 0 0 0 0 0 0
0 0 0 0 0 0 0 0 0 0 0 0 0 0 0 0 0 0 0 0 0 0 0 0 0 0 0 0 0 0 0 0 0 0 0 0 0 0 0 0 0 0 0 0
0 0 0 0 0 0 0 0 0 0 0 0 0 0 0 0 0 0 0 0 0 0 0 0 0 0 0 0 0 0 0 0 0 0 0 0 0 0 0 0 0 0 0 0
0 0 0 0 0 0 0 0 0 0 0 0 0 0 0 0 0 0 0 0 0 0 0 0 0 0 0 0 0 0 0 0 0 0 0 0 0 0 0 0 0 0 0 0
0 0 0 0 0 0 0 0 0 0 0 0 0 0 0 0 0 0 0 0 0 0 0 0 0 0 0 0 0 0 0 0 0 0 0 0 0 0 0 0 0 0 0 0
0 0 0 0 0 0 0 0 0 0 0 0 0 0 0 0 0 0 0 0 0 0 0 0 0 0 0 0 0 0 0 0 0 0 0 0 0 0 0 0 0 0 0 0
0 0 0 0 0 0 0 0 0 0 0 0 0 0 0 0 0 0 0 0 0 0 0 0 0 0 0 0 0 0 0 0 0 0 0 0 0 0 0 0 0 0 0 0
0 0 0 0 0 0 0 0 0 0 0 0 0 0 0 0 0 0 0 0 0 0 0 0 0 0 0 0 0 0 0 0 0 0 0 0 0 0 0 0 0 0 0 0
0 0 0 0 0 0 0 0 0 0 0 0 0 0 0 0 0 0 0 0 0 0 0 0 0 0 0 0 0 0 0 0 0 0 0 0 0 0 0 0 0 0 0 0
0 0 0 0 0 0 0 0 0 0 0 0 0 0 0 0 0 0 0 0 0 0 0 0 0 0 0 0 0 0 0 0 0 0 0 0 0 0 0 0 0 0 0 0
0 0 0 0 0 0 0 0 0 0 0 0 0 0 0 0 0 0 0 0 0 0 0 0 0 0 0 0 0 0 0 0 0 0 0 0 0 0 0 0 0 0 0 0
0 0 0 0 0 0 0 0 0 0 0 0 0 0 0 0 0 0 0 0 0 0 0 0 0 0 0 0 0 0 0 0 0 0 0 0 0 0 0 0 0 0 0 0
0 0 0 0 0 0 1 0 0 0 0 0 0 0 0 0 0 0 0 0 0 0 0 0 0 0 0 0 0 0 0 0 0 0 0 0 0 0 0 0 0 0 0 0
0 0 0 0 0 0 0 0 0 0 0 0 0 0 0 0 0 0 0 0 0 0 0 0 0 0 0 0 0 0 0 0 0 0 0 0 0 0 0 0 0 0 0 0
1 1 3 0 0 0 0 0 0 0 0 0 0 0 0 0 0 0 0 0 0 0 0 0 0 0 0 0 0 0 0 0 0 0 0 0 0 0 0 0 0 0 0 0
1 0 0 0 1 5 0 0 0 0 0 0 0 0 0 0 0 0 0 0 0 0 0 0 0 0 0 0 0 0 0 0 0 0 0 0 0 0 0 0 0 0 0 0
3 7 4 2 0 0 12 0 0 0 0 0 0 0 0 0 0 0 0 0 0 0 0 0 0 0 0 0 0 0 0 0 0 0 0 0 0 0 0 0 0 0 0 0
23 84 24 0 0 0 0 0 0 0 0 0 0 0 0 0 0 0 0 0 0 0 0 0 0 0 0 0 0 0 0 0 0 0 0 0 0 0 0 0 0 0 0 0
3 3 0 0 0 11 0 0 2 0 0 0 0 0 0 0 0 0 0 0 0 0 0 0 0 0 0 0 0 0 0 0 0 0 0 0 0 0 0 0 0 0 0 0
24 20 0 7 0 0 0 0 0 0 0 0 0 0 0 0 0 0 0 0 0 0 0 0 0 0 0 0 0 0 0 0 0 0 0 0 0 0 0 0 0 0 0 0
0 51 16 1 1 8 0 2 0 0 0 0 0 0 0 0 0 0 0 0 0 0 0 0 0 0 0 0 0 0 0 0 0 0 0 0 0 0 0 0 0 0 0 0
0 0 2 6 0 0 0 0 0 0 0 0 0 0 0 0 0 0 0 0 0 0 0 0 0 0 0 0 0 0 0 0 0 0 0 0 0 0 0 0 0 0 0 0
0 0 0 0 0 0 0 0 6 0 0 0 0 0 0 0 0 0 0 0 0 0 0 0 0 0 0 0 0 0 0 0 0 0 0 0 0 0 0 0 0 0 0 0
0 0 0 1 22 24 2 2 2 11 21 7 0 0 0 0 0 0 0 0 0 0 0 0 0 0 0 0 0 0 0 0 0 0 0 0 0 0 0 0 0 0 0 0
CIN
-0 -0 -0 -0 -0 -0 -0 -0 -0 -0 -0 -0 -0 -0 -0 -0 -0 -0 -0 -0 -0 -0 -0 -0 -0 -0 -0 -0 -0 -0 -0 -0 -0 -0 -0 -0 -0 -0 -0 -0 -0 -0 -0 -0
-0 -0 -0 -0 -0 -0 -0 -0 -0 -0 -0 -0 -0 -0 -0 -0 -0 -0 -0 -0 -0 -0 -0 -0 -0 -0 -0 -0 -0 -0 -0 -0 -0 -0 -0 -0 -0 -0 -0 -0 -0 -0 -0 -0
-0 -0 -0 -0 -0 -0 -0 -0 -0 -0 -0 -0 -0 -0 -0 -0 -0 -0 -0 -0 -0 -0 -0 -0 -0 -0 -0 -0 -0 -0 -0 -0 -0 -0 -0 -0 -0 -0 -0 -0 -0 -0 -0 -0
-0 -0 -0 -0 -0 -0 -0 -0 -0 -0 -0 -0 -0 -0 -0 -0 -0 -0 -0 -0 -0 -0 -0 -0 -0 -0 -0 -0 -0 -0 -0 -0 -0 -0 -0 -0 -0 -0 -0 -0 -0 -0 -0 -0
-0 -0 -0 -0 -0 -0 -0 -0 -0 -0 -0 -0 -0 -0 -0 -0 -0 -0 -0 -0 -0 -0 -0 -0 -0 -0 -0 -0 -0 -0 -0 -0 -0 -0 -0 -0 -0 -0 -0 -0 -0 -0 -0 -0
-0 -0 -0 -0 -0 -0 -0 -0 -0 -0 -0 -0 -0 -0 -0 -0 -0 -0 -0 -0 -0 -0 -0 -0 -0 -0 -0 -0 -0 -0 -0 -0 -0 -0 -0 -0 -0 -0 -0 -0 -0 -0 -0 -0
-0 -0 -0 -0 -0 -0 -0 -0 -0 -0 -0 -0 -0 -0 -0 -0 -0 -0 -0 -0 -0 -0 -0 -0 -0 -0 -0 -0 -0 -0 -0 -0 -0 -0 -0 -0 -0 -0 -0 -0 -0 -0 -0 -0
-0 -0 -0 -0 -0 -0 -0 -0 -0 -0 -0 -0 -0 -0 -0 -0 -0 -0 -0 -0 -0 -0 -0 -0 -0 -0 -0 -0 -0 -0 -0 -0 -0 -0 -0 -0 -0 -0 -0 -0 -0 -0 -0 -0
-0 -0 -0 -0 -0 -0 -0 -0 -0 -0 -0 -0 -0 -0 -0 -0 -0 -0 -0 -0 -0 -0 -0 -0 -0 -0 -0 -0 -0 -0 -0 -0 -0 -0 -0 -0 -0 -0 -0 -0 -0 -0 -0 -0
-0 -0 -0 -0 -0 -0 -0 -0 -0 -0 -0 -0 -0 -0 -0 -0 -0 -0 -0 -0 -0 -0 -0 -0 -0 -0 -0 -0 -0 -0 -0 -0 -0 -0 -0 -0 -0 -0 -0 -0 -0 -0 -0 -0
-0 -0 -0 -0 -0 -0 -0 -0 -0 -0 -0 -0 -0 -0 -0 -0 -0 -0 -0 -0 -0 -0 -0 -0 -0 -0 -0 -0 -0 -0 -0 -0 -0 -0 -0 -0 -0 -0 -0 -0 -0 -0 -0 -0
-0 -0 -0 -0 -0 -0 -0 -0 -0 -0 -0 -0 -0 -0 -0 -0 -0 -0 -0 -0 -0 -0 -0 -0 -0 -0 -0 -0 -0 -0 -0 -0 -0 -0 -0 -0 -0 -0 -0 -0 -0 -0 -0 -0
-0 -0 -0 -0 -0 -0 -0 -0 -0 -0 -0 -0 -0 -0 -0 -0 -0 -0 -0 -0 -0 -0 -0 -0 -0 -0 -0 -0 -0 -0 -0 -0 -0 -0 -0 -0 -0 -0 -0 -0 -0 -0 -0 -0
-2 -0 -0 -0 -0 -0 -0 -0 -0 -0 -0 -0 -0 -0 -0 -0 -0 -0 -0 -0 -0 -0 -0 -0 -0 -0 -0 -0 -0 -0 -0 -0 -0 -0 -0 -0 -0 -0 -0 -0 -0 -0 -0 -0
-0 -0 -0 -0 -0 -0 -1 -0 -0 -0 -0 -0 -0 -0 -0 -0 -0 -0 -0 -0 -0 -0 -0 -0 -0 -0 -0 -0 -0 -0 -0 -0 -0 -0 -0 -0 -0 -0 -0 -0 -0 -0 -0 -0
-0 -0 -0 -0 -0 -0 -0 -0 -0 -0 -0 -0 -0 -0 -0 -0 -0 -0 -0 -0 -0 -0 -0 -0 -0 -0 -0 -0 -0 -0 -0 -0 -0 -0 -0 -0 -0 -0 -0 -0 -0 -0 -0 -0
-0 -0 -0 -0 -0 -0 -0 -0 -0 -0 -0 -0 -0 -0 -0 -0 -0 -0 -0 -0 -0 -0 -0 -0 -0 -0 -0 -0 -0 -0 -0 -0 -0 -0 -0 -0 -0 -0 -0 -0 -0 -0 -0 -0
-0 -0 -0 -0 -0 -1 -0 -0 -0 -0 -0 -0 -0 -0 -0 -0 -0 -0 -0 -0 -0 -0 -0 -0 -0 -0 -0 -0 -0 -0 -0 -0 -0 -0 -0 -0 -0 -0 -0 -0 -0 -0 -0 -0
-0 -0 -0 -0 -0 -0 -0 -0 -0 -0 -0 -0 -0 -0 -0 -0 -0 -0 -0 -0 -0 -0 -0 -0 -0 -0 -0 -0 -0 -0 -0 -0 -0 -0 -0 -0 -0 -0 -0 -0 -0 -0 -0 -0
-17 -2 -0 -0 -0 -0 -0 -0 -0 -0 -0 -0 -0 -0 -0 -0 -0 -0 -0 -0 -0 -0 -0 -0 -0 -0 -0 -0 -0 -0 -0 -0 -0 -0 -0 -0 -0 -0 -0 -0 -0 -0 -0 -0
-1 -1 -0 -0 -0 -1 -0 -1 -9 -0 -0 -0 -0 -0 -0 -0 -0 -0 -0 -0 -0 -0 -0 -0 -0 -0 -0 -0 -0 -0 -0 -0 -0 -0 -0 -0 -0 -0 -0 -0 -0 -0 -0 -0
-1 -2 -1 -3 -0 -0 -0 -0 -0 -0 -0 -0 -0 -0 -0 -0 -0 -0 -0 -0 -0 -0 -0 -0 -0 -0 -0 -0 -0 -0 -0 -0 -0 -0 -0 -0 -0 -0 -0 -0 -0 -0 -0 -0
-0 -2 -7 -0 -2 -51 -0 -6 -0 -0 -0 -0 -0 -0 -0 -0 -0 -0 -0 -0 -0 -0 -0 -0 -0 -0 -0 -0 -0 -0 -0 -0 -0 -0 -0 -0 -0 -0 -0 -0 -0 -0 -0 -0
-0 -0 -5 -11 -0 -0 -0 -0 -0 -6 -3 -0 -0 -0 -0 -0 -0 -0 -0 -0 -0 -0 -0 -0 -0 -0 -0 -0 -0 -0 -0 -0 -0 -0 -0 -0 -0 -0 -0 -0 -0 -0 -0 -0
-0 -0 -0 -0 -0 -0 -3 -0 -84 -29 -0 -0 -0 -0 -0 -0 -0 -0 -0 -0 -0 -0 -0 -0 -0 -0 -0 -0 -0 -0 -0 -0 -0 -0 -0 -0 -0 -0 -0 -0 -0 -0 -0 -0
-0 -0 -0 -0 -2 -3 -1 -0 -2 -9 -24 -12 -0 -0 -0 -0 -0 -0 -0 -0 -0 -0 -0 -0 -0 -0 -0 -0 -0 -0 -0 -0 -0 -0 -0 -0 -0 -0 -0 -0 -0 -0 -0 -0
Wind_Speed
15 20 21 19 17 22 27 30 30 25 16 17 20 23 20 16 16 16 15 16 16 13 10 9 9 10 11 11 11 12 14 16 18 20 23 25 26 27 29 29 28 30 30 33
17 25 23 23 22 22 28 31 32 31 21 22 28 29 25 20 19 18 16 17 17 15 12 10 9 10 11 11 11 12 13 14 16 19 21 23 25 28 28 27 30 29 30 32
24 24 17 22 24 25 27 29 29 30 23 27 32 37 25 23 22 18 18 18 16 16 14 12 11 12 12 11 10 11 12 13 15 18 20 23 26 28 28 29 29 28 31 32
27 23 20 23 27 24 32 28 25 28 29 33 17 37 33 31 21 15 16 16 15 15 14 13 12 11 10 10 10 9 11 13 14 16 20 23 27 29 28 28 29 31 30 31
23 22 23 25 24 21 27 21 22 24 29 34 31 32 29 24 20 17 16 17 13 14 14 13 12 11 9 7 8 10 11 12 14 17 20 22 25 27 26 28 30 30 30 30
28 24 22 23 22 22 17 22 24 26 28 38 30 27 37 26 24 20 18 15 13 13 14 13 11 9 8 6 7 8 10 13 14 17 19 22 25 26 28 29 30 30 30 32
28 29 25 22 23 22 21 24 34 35 32 39 29 27 28 18 24 23 20 21 15 13 12 11 10 9 8 8 8 9 12 14 14 16 18 22 24 25 26 27 28 30 32 34
29 33 21 19 24 26 25 25 31 39 38 39 25 31 27 22 21 21 20 19 14 12 11 10 9 8 8 8 9 9 12 13 13 15 19 20 22 24 25 26 27 30 32 34
29 37 25 22 19 18 23 28 26 38 41 42 36 34 33 29 26 21 17 17 14 9 9 8 8 8 9 9 9 10 11 12 13 15 17 19 22 25 25 25 27 29 31 33
31 43 29 23 21 24 27 22 26 25 37 38 32 30 28 26 18 16 16 15 12 11 8 8 8 9 9 10 10 10 10 11 12 14 16 20 22 24 24 25 27 29 31 30
32 34 33 24 30 28 28 31 29 29 30 35 36 33 22 27 24 16 15 12 12 11 10 10 9 9 9 10 10 11 10 10 12 15 17 19 22 22 23 26 28 29 29 31
31 32 43 40 31 28 31 33 31 36 36 37 41 37 28 33 25 20 17 15 13 12 12 12 11 10 10 10 11 11 10 12 12 14 17 19 21 22 24 26 27 29 30 31
31 36 48 49 34 33 35 34 34 38 42 48 45 45 26 27 23 17 16 15 14 14 15 13 12 11 11 11 10 10 10 11 12 14 16 19 21 22 24 26 27 29 30 30
33 39 43 52 47 35 41 38 37 38 45 43 46 44 36 27 23 21 21 21 19 15 13 13 13 12 12 11 10 10 11 10 11 13 16 19 20 22 23 25 28 29 28 29
37 50 51 55 53 45 42 39 37 39 41 44 42 43 33 31 29 26 23 22 18 16 14 13 13 12 12 11 10 10 10 10 12 14 17 18 19 21 23 26 28 28 28 29
44 48 55 58 55 55 58 55 45 40 40 42 40 47 32 29 27 28 20 20 21 19 17 15 14 13 12 11 10 10 10 11 12 15 17 18 19 21 23 25 27 29 30 30
57 45 52 63 57 56 60 54 50 46 41 39 40 39 36 38 34 36 36 31 27 21 17 15 14 12 11 11 10 10 10 10 13 14 16 19 20 21 24 26 29 30 32 31
54 66 49 57 57 72 55 48 48 48 47 42 43 43 41 37 36 33 26 25 22 20 17 16 13 12 10 9 10 10 10 11 13 16 18 19 20 22 24 28 30 31 31 30
49 57 61 54 54 55 48 50 41 42 50 40 42 44 41 39 37 35 26 21 21 20 16 15 12 11 9 9 9 9 10 12 15 17 18 18 20 23 26 29 31 30 30 30
39 45 52 59 51 53 47 41 33 38 59 37 37 46 41 33 35 33 20 19 19 17 13 12 10 9 8 9 9 10 11 13 15 16 16 18 21 24 26 28 29 29 29 30
47 45 53 58 52 45 40 43 31 46 50 29 31 35 33 31 32 26 16 13 9 10 11 9 8 8 8 8 9 10 11 12 14 14 17 20 21 24 26 28 28 30 30 30
48 48 50 44 49 51 36 24 26 34 37 32 28 28 27 19 14 13 10 7 6 8 9 8 8 9 10 9 9 10 11 12 13 15 18 19 21 24 25 27 28 29 30 29
45 36 42 39 42 36 41 35 36 41 43 37 36 33 26 18 15 11 11 10 9 8 8 9 9 11 11 10 10 10 12 13 15 17 19 20 22 24 26 27 29 30 29 30
47 43 50 49 52 51 50 48 47 44 45 44 39 34 28 26 17 15 14 14 13 12 12 11 11 12 11 10 10 11 11 15 17 18 20 22 24 25 26 26 28 29 30 29
50 49 55 58 59 48 43 41 47 44 44 44 40 37 29 26 24 19 18 16 16 15 13 12 12 12 11 10 11 11 14 16 18 19 22 23 24 26 26 27 27 27 25 27
48 53 51 58 47 50 53 46 44 41 39 37 38 36 30 29 27 25 22 18 16 15 14 12 12 12 11 10 11 12 14 16 18 20 22 23 25 26 26 28 28 23 24 29
Wind_Direction
288 287 284 285 282 287 297 293 297 300 304 295 290 291 289 277 268 271 267 265 263 254 260 256 279 295 304 307 311 318 325 333 337 337 336 336 337 339 339 340 342 341 341 340
291 283 285 290 291 286 288 291 291 296 302 299 299 295 293 281 262 259 260 266 264 264 257 262 274 290 292 296 301 315 322 329 336 336 337 337 337 337 338 340 340 340 341 339
278 293 284 290 289 288 287 288 292 295 302 302 300 298 295 288 278 270 261 267 266 262 257 261 271 286 290 289 295 309 321 330 333 335 337 337 337 337 338 339 339 340 339 339
286 285 291 289 286 287 286 294 290 295 297 298 303 297 298 299 290 275 267 263 264 268 264 264 270 281 286 284 297 304 316 323 330 333 334 335 334 335 337 338 339 339 340 339
292 290 286 286 287 287 287 300 296 296 294 295 292 297 301 307 300 285 280 273 266 270 271 266 272 277 278 280 287 305 314 320 326 330 333 333 334 335 338 338 338 340 341 341
282 299 290 287 293 291 298 296 297 298 296 289 289 286 295 297 295 292 288 284 285 278 277 274 272 277 276 273 289 301 310 319 326 329 330 332 332 334 336 336 337 339 340 340
285 278 287 287 285 290 287 289 289 288 286 288 300 284 280 300 301 303 297 299 297 291 281 276 271 266 268 275 288 300 309 314 322 325 329 332 333 333 334 336 338 339 338 338
286 286 267 275 270 281 273 272 279 286 287 292 298 288 294 297 298 302 303 305 304 297 286 277 267 265 265 275 288 296 307 308 315 323 329 333 335 334 335 337 338 337 337 337
285 283 287 277 275 269 283 271 277 285 287 288 286 289 293 295 293 294 297 306 298 295 289 278 272 264 272 277 287 296 302 308 314 322 328 332 336 336 337 337 337 337 338 337
285 285 286 279 275 274 272 295 282 278 285 284 288 287 291 301 292 283 291 299 294 298 287 289 279 272 275 286 292 296 301 305 313 319 327 332 336 337 337 338 337 338 337 336
272 277 289 275 266 266 272 271 277 281 276 285 288 290 292 299 305 286 293 294 291 293 283 292 287 280 282 292 295 301 301 306 316 322 327 334 335 337 338 338 337 337 337 339
274 278 274 267 278 267 265 267 255 271 277 277 278 272 288 296 301 298 294 291 286 292 290 294 289 286 287 286 296 299 305 311 315 322 329 332 335 337 338 338 339 339 339 340
282 273 273 276 275 273 269 263 267 267 277 273 274 281 292 292 292 288 291 291 287 288 292 291 286 283 285 286 291 298 304 309 315 323 329 332 334 337 338 338 339 340 340 340
276 270 268 268 269 274 272 268 263 263 268 267 271 279 279 286 290 292 289 289 286 284 287 287 287 284 286 287 290 294 300 304 313 322 327 330 334 336 338 339 340 340 340 340
281 269 268 271 272 273 271 269 262 258 256 265 274 275 274 279 283 284 281 284 283 281 280 281 284 283 287 285 290 295 300 308 320 326 328 330 333 336 338 340 340 340 340 341
285 277 276 271 269 268 269 269 270 261 262 266 271 275 276 291 290 289 285 284 279 281 280 278 284 287 283 283 286 294 303 311 319 324 326 330 334 337 338 339 340 342 342 343
275 281 279 272 270 267 263 262 264 265 265 267 266 255 288 283 282 283 284 285 286 286 277 276 277 282 284 286 286 294 303 314 319 322 328 334 335 337 339 341 343 344 344 344
274 267 279 277 273 260 264 262 264 267 267 266 271 277 284 282 283 284 286 286 285 287 286 287 284 288 289 290 298 310 314 317 323 326 331 334 336 338 341 343 343 344 344 344
269 269 266 277 270 273 267 259 260 261 269 273 271 278 283 283 282 278 280 282 284 289 288 292 291 293 294 297 306 312 316 321 324 327 331 334 337 339 342 343 343 344 344 344
278 275 268 270 271 270 269 264 266 269 269 274 278 279 282 285 275 278 276 276 280 287 292 296 298 300 300 305 312 316 318 322 324 329 331 336 339 340 341 342 343 344 345 344
279 276 266 265 272 284 279 267 263 262 273 287 290 287 283 278 274 280 278 272 273 287 296 301 301 305 309 312 316 318 321 320 327 331 335 337 340 340 341 342 344 344 345 345
279 273 269 273 269 271 285 283 268 285 291 294 300 304 296 289 284 274 266 245 269 296 298 302 308 312 316 317 318 320 321 328 332 333 335 337 340 340 341 342 343 345 344 345
283 285 275 274 274 280 278 277 287 287 284 287 292 293 297 288 279 269 258 260 274 296 300 307 311 314 315 316 319 322 325 330 335 335 336 337 339 340 341 342 343 344 346 346
286 290 278 276 265 270 275 277 282 287 284 280 285 289 290 284 273 264 266 271 280 291 297 302 307 311 312 316 319 323 332 331 333 335 337 339 339 340 342 343 345 344 345 347
281 287 277 272 267 281 279 288 280 280 280 279 276 278 285 279 273 271 275 278 283 288 297 299 305 311 314 318 323 330 332 334 334 336 337 339 341 342 343 344 344 344 348 349
284 277 277 268 280 281 277 286 282 280 277 286 277 278 276 276 273 277 280 282 283 286 291 294 303 314 316 323 327 332 333 335 337 337 338 340 342 343 344 344 343 346 348 345